Flag for Germany Weather past 2 weeks in Schwäbisch Gmünd, Baden-Württemberg, Germany

Now
45 °F

Passing clouds.


Feels Like: 42 °F
Forecast: 48 / 59 °F
Wind: 5 mph from West

Location: Stoetten

Current Time: Sep 5, 2015 at 6:57:18 AM

Latest Report: Sep 5, 2015 at 6:00 AM


Visibility: 41 mi

Pressure: 30.04 "Hg

Humidity: 84%

Dew point: 40 °F

Location of Schwäbisch GmündLocation

Historic Weather in Schwäbisch Gmünd — Graph

°F

Schwäbisch Gmünd temperature yesterday

Maximum temperature yesterday: 61 °F (at 3:00 PM)
Minimum temperature yesterday: 49 °F (at 7:00 AM)
Average temperature yesterday: 55 °F

Past Weeks' High & Low Weather Summary

 TemperatureHumidityPressure
High87 °F (Aug 30, 5:00 PM)100% (Sep 1, 6:00 PM)30.27 "Hg (Sep 1, 6:00 PM)
Low45 °F (Sep 5, 5:00 AM)31% (Aug 31, 7:00 PM)29.67 "Hg (Aug 24, 3:00 PM)
Average64 °F67%29.99 "Hg
* Reported Aug 21 5:00 AM — Sep 5 5:00 AM, Schwäbisch Gmünd, Weather by CustomWeather, © 2015

Note: Actual official high and low records may vary slightly from our data, if they occured in-between our weather recording intervals... More about our weather records

Advertising

Schwäbisch Gmünd weather history for previous 24 hours

 ConditionsComfort  
Time TempWeatherWind HumidityBarometerVisibility
5:00 AM
Sat, Sep 5
45 °FClear.N/A84%30.03 "Hg31 mi
4:00 AM47 °FPassing clouds.N/A79%30.02 "Hg40 mi
3:00 AM47 °FPassing clouds.N/A77%30.03 "Hg37 mi
2:00 AM48 °FPassing clouds.N/A74%30.04 "Hg43 mi
1:00 AM50 °FOvercast.N/A68%30.02 "Hg43 mi
11:00 PM
Fri, Sep 4
51 °FOvercast.N/A66%30.01 "Hg43 mi
10:00 PM52 °FPassing clouds.N/A64%30.02 "Hg43 mi
9:00 PM51 °FPassing clouds.3 mph69%30.00 "Hg47 mi
8:00 PM54 °FPassing clouds.5 mph60%29.98 "Hg47 mi
7:00 PM58 °FPassing clouds.6 mph53%29.97 "Hg47 mi
6:00 PM59 °FPassing clouds.6 mph53%29.95 "Hg47 mi
5:00 PM61 °FPassing clouds.5 mph52%29.94 "Hg47 mi
4:00 PM61 °FScattered clouds.5 mph54%29.96 "Hg47 mi
3:00 PM61 °FScattered clouds.7 mph49%29.97 "Hg47 mi
2:00 PM59 °FScattered clouds.6 mph54%29.99 "Hg47 mi
1:00 PM59 °FPassing clouds.6 mph57%30.00 "Hg47 mi
12:00 PM59 °FPassing clouds.6 mph62%30.00 "Hg47 mi
11:00 AM56 °FPassing clouds.5 mph60%30.02 "Hg47 mi
10:00 AM54 °FScattered clouds.3 mph69%30.02 "Hg47 mi
9:00 AM52 °FScattered clouds.2 mph73%30.02 "Hg47 mi
8:00 AM50 °FOvercast.N/A87%30.03 "Hg37 mi
7:00 AM49 °FOvercast.2 mph85%30.02 "Hg34 mi
Weather by CustomWeather, © 2015

See weather overviewHow to use our weather pages